Tracking 28125 objects as of 2-Oct-2023
HD Live streaming from Space Station
objects crossing your sky now

STARLINK-5073

Track STARLINK-5073 now!
10-day predictions
STARLINK-5073 is classified as:


NORAD ID: 55427
Int'l Code: 2023-014AN
Perigee: 577.1 km
Apogee: 581.2 km
Inclination: 70.0 °
Period: 96.1 minutes
Semi major axis: 6950 km
RCS: Unknown
Launch date: January 31, 2023
Source: United States (US)
Launch site: AIR FORCE WESTERN TEST RANGE (AFWTR)
Your satellite tracking list
Your tracking list is empty




NASA's NSSDC Master Catalog

Two Line Element Set (TLE):
1 55427U 23014AN  23275.39986878 -.00002147  00000-0 -17208-3 0  9997
2 55427  69.9999 166.7382 0002962 273.3265  86.7555 14.98353949 37412
Source of the keplerian elements: AFSPC